Location: Barruelo
(41.2448°N, 3.8231°W)
Time: 02:18:54
(UTC+00:00)

BlueWalker 3 - Pass Details

Date: 11 December 2025
Orbit: 451 x 463 km, 53.2° (Epoch: 14 January)

Event Time Altitude Azimuth Distance (km) Brightness Sun altitude
Rises 17:59:05 0° 297° (WNW) 2,490 6.2 -13.2°
Reaches altitude 10° 18:01:32 10° 282° (WNW) 1,612 5.5 -13.7°
Maximum altitude 18:04:23 22° 230° (SW) 1,058 4.5 -14.2°
Drops below altitude 10° 18:07:14 10° 178° (S) 1,604 4.7 -14.7°
Sets 18:09:41 0° 162° (SSE) 2,474 5.5 -15.1°
